Time,TemperatureF,DewpointF,PressureIn,WindDirection,WindDirectionDegrees,WindSpeedMPH,WindSpeedGustMPH,Humidity,HourlyPrecipIn,Conditions,Clouds,dailyrainin,SolarRadiationWatts/m^2,SoftwareType,DateUTC
2013-11-02 00:04:00,60.0,59.0,-100.00,ESE,114,3.0,5.0,96,0.00,,,0.00,0.000000,,2013-11-02 05:04:00,
2013-11-02 00:42:00,60.0,59.0,-100.00,West,270,6.0,12.0,96,0.08,,,0.08,0.000000,,2013-11-02 05:42:00,
2013-11-02 00:52:00,60.0,59.0,-100.00,West,270,6.0,12.0,96,0.08,,,0.08,0.000000,,2013-11-02 05:52:00,
2013-11-02 01:02:00,60.0,59.0,-100.00,West,270,6.0,12.0,96,0.08,,,0.08,0.000000,,2013-11-02 06:02:00,
2013-11-02 01:43:00,60.0,59.0,-100.00,NNW,345,7.0,11.0,96,0.15,,,0.23,0.000000,,2013-11-02 06:43:00,
2013-11-02 01:52:00,60.0,59.0,-100.00,NNW,345,7.0,11.0,96,0.15,,,0.23,0.000000,,2013-11-02 06:52:00,
2013-11-02 02:03:00,60.0,59.0,-100.00,NNW,345,7.0,11.0,96,0.15,,,0.23,0.000000,,2013-11-02 07:03:00,
2013-11-02 02:42:00,59.0,58.0,-100.00,NE,44,5.0,12.0,96,0.00,,,0.23,0.000000,,2013-11-02 07:42:00,
2013-11-02 02:52:00,59.0,58.0,-100.00,NE,44,5.0,12.0,96,0.00,,,0.23,0.000000,,2013-11-02 07:52:00,
2013-11-02 03:02:00,59.0,58.0,-100.00,NE,44,5.0,12.0,96,0.00,,,0.23,0.000000,,2013-11-02 08:02:00,
2013-11-02 03:42:00,59.0,58.0,-100.00,NE,47,3.0,9.0,96,0.00,,,0.23,0.000000,,2013-11-02 08:42:00,
2013-11-02 03:52:00,59.0,58.0,-100.00,NE,47,3.0,9.0,96,0.00,,,0.23,0.000000,,2013-11-02 08:52:00,
2013-11-02 04:02:00,59.0,58.0,-100.00,NE,47,3.0,9.0,96,0.00,,,0.23,0.000000,,2013-11-02 09:02:00,
2013-11-02 04:43:00,58.0,57.0,-100.00,NW,323,3.0,10.0,96,0.00,,,0.23,0.000000,,2013-11-02 09:43:00,
2013-11-02 04:53:00,58.0,57.0,-100.00,NW,323,3.0,10.0,96,0.00,,,0.23,0.000000,,2013-11-02 09:53:00,
2013-11-02 05:03:00,58.0,57.0,-100.00,NW,323,3.0,10.0,96,0.00,,,0.23,0.000000,,2013-11-02 10:03:00,
2013-11-02 05:42:00,57.0,56.0,-100.00,NW,320,4.0,8.0,96,0.00,,,0.23,0.000000,,2013-11-02 10:42:00,
2013-11-02 05:53:00,57.0,56.0,-100.00,NW,320,4.0,8.0,96,0.00,,,0.23,0.000000,,2013-11-02 10:53:00,
2013-11-02 06:02:00,57.0,56.0,-100.00,NW,320,4.0,8.0,96,0.00,,,0.23,0.000000,,2013-11-02 11:02:00,
2013-11-02 06:42:00,55.0,54.0,-100.00,NW,318,5.0,8.0,96,0.00,,,0.23,0.000000,,2013-11-02 11:42:00,
2013-11-02 06:52:00,55.0,54.0,-100.00,NW,318,5.0,8.0,96,0.00,,,0.23,0.000000,,2013-11-02 11:52:00,
2013-11-02 07:02:00,55.0,54.0,-100.00,NW,318,5.0,8.0,96,0.00,,,0.23,0.000000,,2013-11-02 12:02:00,
2013-11-02 07:42:00,53.0,52.0,-100.00,NW,317,4.0,11.0,95,0.00,,,0.23,0.000000,,2013-11-02 12:42:00,
2013-11-02 07:52:00,53.0,52.0,-100.00,NW,317,4.0,11.0,95,0.00,,,0.23,0.000000,,2013-11-02 12:52:00,
2013-11-02 08:02:00,53.0,52.0,-100.00,NW,317,4.0,11.0,95,0.00,,,0.23,0.000000,,2013-11-02 13:02:00,
2013-11-02 08:42:00,52.0,51.0,-100.00,NNW,330,4.0,9.0,95,0.01,,,0.24,5.000000,,2013-11-02 13:42:00,
2013-11-02 08:52:00,52.0,51.0,-100.00,NNW,330,4.0,9.0,95,0.01,,,0.24,5.000000,,2013-11-02 13:52:00,
2013-11-02 09:02:00,52.0,51.0,-100.00,NNW,330,4.0,9.0,95,0.01,,,0.24,5.000000,,2013-11-02 14:02:00,
2013-11-02 09:42:00,54.0,53.0,-100.00,NNW,339,6.0,13.0,96,0.00,,,0.24,28.000000,,2013-11-02 14:42:00,
2013-11-02 09:52:00,54.0,53.0,-100.00,NNW,339,6.0,13.0,96,0.00,,,0.24,28.000000,,2013-11-02 14:52:00,
2013-11-02 10:02:00,54.0,53.0,-100.00,NNW,339,6.0,13.0,96,0.00,,,0.24,28.000000,,2013-11-02 15:02:00,
2013-11-02 10:43:00,61.0,55.0,-100.00,NNW,347,6.0,14.0,82,0.00,,,0.24,263.000000,,2013-11-02 15:43:00,
2013-11-02 10:53:00,61.0,55.0,-100.00,NNW,347,6.0,14.0,82,0.00,,,0.24,263.000000,,2013-11-02 15:53:00,
2013-11-02 11:03:00,61.0,55.0,-100.00,NNW,347,6.0,14.0,82,0.00,,,0.24,263.000000,,2013-11-02 16:03:00,
2013-11-02 11:43:00,64.0,52.0,-100.00,NNE,12,7.0,17.0,65,0.00,,,0.24,137.000000,,2013-11-02 16:43:00,
2013-11-02 11:54:00,64.0,52.0,-100.00,NNE,12,7.0,17.0,65,0.00,,,0.24,137.000000,,2013-11-02 16:54:00,
2013-11-02 12:03:00,64.0,52.0,-100.00,NNE,12,7.0,17.0,65,0.00,,,0.24,137.000000,,2013-11-02 17:03:00,
2013-11-02 12:43:00,68.0,49.0,-100.00,North,358,11.0,21.0,50,0.00,,,0.24,335.000000,,2013-11-02 17:43:00,
2013-11-02 12:53:00,68.0,49.0,-100.00,North,358,11.0,21.0,50,0.00,,,0.24,335.000000,,2013-11-02 17:53:00,
2013-11-02 13:02:00,68.0,49.0,-100.00,North,358,11.0,21.0,50,0.00,,,0.24,335.000000,,2013-11-02 18:02:00,
2013-11-02 13:42:00,71.0,45.0,-100.00,North,1,10.0,23.0,40,0.00,,,0.24,768.000000,,2013-11-02 18:42:00,
2013-11-02 13:52:00,71.0,45.0,-100.00,North,1,10.0,23.0,40,0.00,,,0.24,768.000000,,2013-11-02 18:52:00,
2013-11-02 14:01:00,71.0,45.0,-100.00,North,1,10.0,23.0,40,0.00,,,0.24,768.000000,,2013-11-02 19:01:00,
2013-11-02 14:42:00,71.0,43.0,-100.00,NNW,331,11.0,24.0,36,0.00,,,-99.99,570.000000,,2013-11-02 19:42:00,
2013-11-02 14:52:00,71.0,43.0,-100.00,NNW,331,11.0,24.0,36,0.00,,,-99.99,570.000000,,2013-11-02 19:52:00,
2013-11-02 15:02:00,71.0,43.0,-100.00,NNW,331,11.0,24.0,36,0.00,,,-99.99,570.000000,,2013-11-02 20:02:00,
2013-11-02 15:43:00,72.0,41.0,-100.00,NW,315,10.0,22.0,33,0.00,,,0.24,683.000000,,2013-11-02 20:43:00,
2013-11-02 15:53:00,72.0,41.0,-100.00,NW,315,10.0,22.0,33,0.00,,,0.24,683.000000,,2013-11-02 20:53:00,
2013-11-02 16:02:00,72.0,41.0,-100.00,NW,315,10.0,22.0,33,0.00,,,0.24,683.000000,,2013-11-02 21:02:00,
2013-11-02 16:44:00,71.0,39.0,-100.00,NNW,333,9.0,20.0,31,0.00,,,0.24,540.000000,,2013-11-02 21:44:00,
2013-11-02 16:54:00,71.0,39.0,-100.00,NNW,333,9.0,20.0,31,0.00,,,0.24,540.000000,,2013-11-02 21:54:00,
2013-11-02 17:03:00,71.0,39.0,-100.00,NNW,333,9.0,20.0,31,0.00,,,0.24,540.000000,,2013-11-02 22:03:00,
2013-11-02 17:44:00,68.0,34.0,-100.00,NNW,347,7.0,19.0,28,0.00,,,0.24,352.000000,,2013-11-02 22:44:00,
2013-11-02 17:54:00,68.0,34.0,-100.00,NNW,347,7.0,19.0,28,0.00,,,0.24,352.000000,,2013-11-02 22:54:00,
2013-11-02 18:02:00,68.0,34.0,-100.00,NNW,347,7.0,19.0,28,0.00,,,0.24,352.000000,,2013-11-02 23:02:00,
2013-11-02 18:42:00,62.0,39.0,-100.00,NNW,337,5.0,11.0,42,0.00,,,0.24,90.000000,,2013-11-02 23:42:00,
2013-11-02 18:52:00,62.0,39.0,-100.00,NNW,337,5.0,11.0,42,0.00,,,0.24,90.000000,,2013-11-02 23:52:00,
2013-11-02 19:01:00,62.0,39.0,-100.00,NNW,337,5.0,11.0,42,0.00,,,0.24,90.000000,,2013-11-03 00:01:00,
2013-11-02 19:42:00,56.0,39.0,-100.00,NNW,330,5.0,10.0,53,0.00,,,0.24,4.000000,,2013-11-03 00:42:00,
2013-11-02 19:52:00,56.0,39.0,-100.00,NNW,330,5.0,10.0,53,0.00,,,0.24,4.000000,,2013-11-03 00:52:00,
2013-11-02 20:02:00,56.0,39.0,-100.00,NNW,330,5.0,10.0,53,0.00,,,0.24,4.000000,,2013-11-03 01:02:00,
2013-11-02 20:42:00,53.0,45.0,-100.00,NNW,332,4.0,9.0,74,0.00,,,0.24,0.000000,,2013-11-03 01:42:00,
2013-11-02 20:52:00,53.0,45.0,-100.00,NNW,332,4.0,9.0,74,0.00,,,0.24,0.000000,,2013-11-03 01:52:00,
2013-11-02 21:02:00,53.0,45.0,-100.00,NNW,332,4.0,9.0,74,0.00,,,0.24,0.000000,,2013-11-03 02:02:00,
2013-11-02 21:43:00,51.0,44.0,-100.00,NW,325,5.0,9.0,78,0.00,,,-99.99,0.000000,,2013-11-03 02:43:00,
2013-11-02 21:52:00,51.0,44.0,-100.00,NW,325,5.0,9.0,78,0.00,,,-99.99,0.000000,,2013-11-03 02:52:00,
2013-11-02 22:02:00,51.0,44.0,-100.00,NW,325,5.0,9.0,78,0.00,,,-99.99,0.000000,,2013-11-03 03:02:00,
2013-11-02 22:45:00,50.0,44.0,-100.00,North,357,5.0,9.0,81,0.00,,,0.24,0.000000,,2013-11-03 03:45:00,
2013-11-02 22:54:00,50.0,44.0,-100.00,North,357,5.0,9.0,81,0.00,,,0.24,0.000000,,2013-11-03 03:54:00,
2013-11-02 23:02:00,-999.0,-99.9,-100.00,North,357,5.0,9.0,-999,-99.99,,,-99.99,0.000000,,2013-11-03 04:02:00,
2013-11-02 23:44:00,49.0,43.0,-100.00,NNW,343,4.0,7.0,81,0.00,,,0.24,0.000000,,2013-11-03 04:44:00,
2013-11-02 23:52:00,49.0,43.0,-100.00,NNW,343,4.0,7.0,81,0.00,,,0.24,0.000000,,2013-11-03 04:52:00,